Wind_Speed
11 12 11 9 7 7 7 8 9 11 13 13 11 11 13 15 16 17 19 20 20 21 21 21 21 22 22 23 23 24 24 25 26 26 27 28 28 29 29 29 30 32
12 12 10 8 8 8 10 11 12 11 11 11 11 12 14 15 17 18 19 20 21 22 21 22 22 23 23 24 25 25 25 26 27 27 28 29 29 29 30 31 32 33
12 11 10 9 9 10 11 12 11 10 10 11 12 13 14 15 17 19 20 21 21 22 23 23 23 24 24 25 26 26 26 27 28 29 30 30 30 31 31 32 33 35
13 12 11 11 10 10 11 11 10 9 10 12 13 13 14 16 18 19 20 22 23 23 24 24 24 25 25 26 27 27 28 29 30 31 31 31 31 32 33 33 35 36
13 12 12 12 11 11 11 11 11 10 11 12 13 14 16 17 18 20 22 23 24 25 25 25 25 25 26 27 28 29 30 31 32 32 32 33 33 34 34 35 36 37
15 14 14 13 12 12 12 12 12 12 13 13 15 16 16 18 19 21 23 24 25 25 25 25 26 26 27 28 29 30 31 32 33 33 34 34 35 35 36 36 37 38
16 16 15 14 13 13 12 13 13 13 14 15 16 16 17 18 21 23 24 25 25 26 26 26 27 28 29 29 30 32 33 33 34 35 36 36 36 36 36 37 38 40
16 16 15 14 13 13 13 13 13 14 16 17 17 18 18 20 22 24 25 26 26 27 27 28 28 29 30 31 32 33 34 34 35 36 37 37 37 37 37 38 40 42
16 17 17 16 15 15 15 14 15 16 17 18 19 20 21 22 24 25 26 27 27 28 28 29 30 31 32 32 33 34 35 36 37 37 38 38 38 38 39 40 42 43
17 18 18 18 18 18 17 17 18 18 18 18 20 21 23 25 26 26 26 27 28 28 29 30 31 32 32 33 34 35 36 37 38 38 38 39 39 40 41 42 43 44
17 18 19 20 20 20 20 21 21 21 20 20 21 23 25 27 27 27 27 28 29 29 30 30 31 32 33 34 35 36 37 37 38 39 39 40 40 41 42 43 44 43
17 19 20 20 21 21 21 22 22 21 22 22 23 25 27 27 27 27 28 29 29 29 30 30 31 32 33 34 35 36 37 38 39 40 40 41 42 42 43 44 44 43
16 18 20 21 21 22 22 22 22 23 24 24 25 28 29 28 27 27 28 29 29 29 30 31 32 33 34 34 35 37 38 39 40 41 41 42 42 43 43 44 43 43
16 18 19 20 21 21 22 22 23 25 25 25 26 28 29 27 27 28 28 29 29 30 31 32 33 33 34 35 37 38 39 40 40 41 41 42 42 43 44 44 43 44
18 19 19 19 19 20 22 24 24 24 24 24 26 27 26 25 26 27 28 29 29 30 31 32 33 34 35 37 38 39 39 39 40 41 41 42 43 43 43 43 43 44
22 22 20 19 19 21 23 25 25 24 24 25 26 27 26 25 26 27 28 29 30 31 31 32 34 35 36 37 38 38 39 40 41 41 42 42 42 42 42 42 43 43
25 24 21 20 22 23 24 25 26 26 26 27 27 27 27 27 27 28 29 30 30 31 32 33 35 36 36 37 37 39 40 41 42 42 41 41 41 41 41 41 42 43
20 20 20 20 22 22 23 24 25 25 26 27 27 27 27 27 28 28 29 30 31 32 33 34 35 36 36 37 39 40 41 41 40 40 39 38 38 39 39 40 41 42
15 16 17 18 18 18 19 20 21 23 25 26 26 26 26 27 27 28 29 30 31 32 33 35 35 36 37 38 39 38 38 37 36 36 36 36 37 38 39 40 41 42
14 14 15 16 16 17 17 17 18 20 22 23 24 25 26 27 27 29 30 31 32 32 33 35 36 37 37 37 36 35 35 34 34 33 34 35 36 37 38 40 41 42
15 15 16 17 17 18 18 18 18 19 20 22 23 25 26 27 28 29 30 31 31 32 34 35 36 36 36 35 34 33 32 31 31 32 33 35 36 37 38 39 40 41
16 17 18 18 19 19 19 19 19 20 21 23 24 26 27 28 29 29 29 30 31 33 34 36 36 35 33 32 31 30 29 30 31 32 33 35 36 37 38 39 39 40
17 18 19 19 19 19 19 19 20 21 22 23 25 26 26 27 28 28 29 31 32 33 33 33 33 31 29 28 28 28 28 29 31 32 33 34 35 36 37 38 39 40
19 19 19 19 19 19 20 20 21 22 22 23 24 25 26 26 27 28 29 29 29 29 29 29 28 27 26 26 26 27 29 30 31 32 33 34 35 36 37 38 39 40
20 19 19 20 20 20 21 21 22 22 23 23 24 24 25 25 26 26 26 26 25 26 26 26 25 25 25 25 26 28 29 31 31 32 33 34 35 36 37 38 39 40
19 19 20 20 21 21 21 22 22 22 22 22 22 22 23 23 23 23 23 23 24 24 24 24 24 24 24 25 27 28 30 30 31 32 33 34 35 36 37 38 39 40
Wind_Direction
238 248 251 249 249 247 247 262 273 272 270 274 277 274 267 265 266 267 270 274 278 281 283 286 288 289 290 293 296 299 301 303 303 303 304 304 304 305 305 304 305 306
245 249 246 239 237 243 254 266 272 269 268 271 272 269 267 269 272 274 277 280 282 284 285 286 288 290 292 295 298 299 300 301 301 301 302 303 304 304 304 303 304 306
244 244 237 231 233 243 256 264 267 266 266 266 267 269 271 273 276 278 281 283 284 284 284 286 288 291 294 296 297 297 298 299 300 300 301 302 303 303 303 304 305 306
242 240 232 229 235 247 258 262 263 261 262 264 268 272 274 276 279 281 283 283 283 284 285 288 290 292 294 295 295 296 297 298 299 299 301 302 303 304 305 305 306 306
240 239 233 234 242 251 256 257 255 255 259 264 269 272 275 278 280 281 281 281 281 284 286 288 290 291 292 293 293 294 296 298 299 299 300 302 303 304 305 305 305 305
242 238 235 241 249 254 255 255 257 258 261 265 268 272 275 278 279 279 279 280 282 284 286 287 289 289 290 290 291 293 296 298 299 299 300 302 303 305 305 304 304 305
245 240 239 245 251 254 256 259 263 266 268 271 274 278 281 281 281 280 280 282 283 284 286 287 288 288 288 289 292 294 297 298 298 299 301 303 304 304 304 302 303 305
248 242 241 245 250 255 260 265 269 273 275 278 282 286 287 285 283 282 283 284 285 286 287 288 288 288 289 291 294 296 297 298 298 300 302 303 303 303 302 302 304 306
253 247 244 246 252 258 263 268 271 273 277 284 289 288 286 283 281 282 283 284 285 287 288 288 288 289 291 293 295 296 297 298 299 301 302 302 302 303 303 304 306 307
255 251 249 251 255 260 265 269 271 274 282 290 293 289 284 280 280 281 283 284 285 287 287 288 289 291 292 294 295 296 297 299 301 302 302 302 303 303 304 305 306 307
255 252 252 254 258 262 267 270 274 279 286 291 293 291 286 281 279 280 281 283 284 286 286 288 289 291 293 294 295 297 299 301 302 302 302 302 303 304 305 306 307 307
255 254 253 254 257 261 265 270 276 282 285 286 288 289 287 283 280 278 280 282 284 285 286 288 290 291 293 295 297 300 302 302 302 301 302 303 304 304 305 306 307 307
257 256 255 255 256 259 264 270 276 280 281 280 282 286 286 282 278 277 279 281 283 285 287 289 291 293 296 298 300 302 302 301 301 302 303 304 304 305 306 307 308 308
262 259 258 259 260 263 266 271 275 277 275 274 279 285 286 279 275 276 279 281 284 287 289 291 294 296 298 300 301 301 301 302 303 304 304 305 305 306 308 308 308 308
264 263 263 263 267 271 270 268 270 271 270 271 277 283 284 278 274 275 278 283 286 288 290 292 295 297 299 300 301 302 303 304 304 304 305 306 307 308 309 308 308 308
264 261 260 263 269 276 274 269 268 267 267 271 275 278 279 276 274 276 280 284 286 287 290 293 296 298 300 301 302 304 304 304 304 304 306 307 308 309 308 308 307 308
266 257 257 264 271 277 276 271 269 268 267 270 272 274 275 275 276 279 282 284 285 288 292 296 298 300 302 303 304 304 303 303 303 304 306 307 308 308 308 308 309 310
270 263 263 268 272 276 276 272 269 267 267 269 271 273 275 276 278 280 282 284 288 292 296 299 301 302 303 303 304 303 303 304 304 305 306 307 307 308 308 309 311 312
269 267 266 268 273 277 277 273 268 267 267 269 272 275 276 277 279 281 284 289 293 297 299 301 301 301 302 302 303 303 304 305 306 307 307 308 308 309 311 312 313 314
263 262 264 269 275 276 276 273 270 267 267 270 273 276 278 280 283 287 290 293 296 298 299 299 299 300 301 301 302 303 305 307 307 308 309 309 310 312 313 314 314 315
259 261 267 272 274 274 273 272 271 270 272 275 277 280 282 285 288 290 292 294 295 296 296 298 299 300 300 301 302 304 307 308 309 310 310 311 312 313 314 315 315 316
255 261 269 271 271 271 271 271 272 274 276 278 280 282 284 286 288 289 291 293 294 295 297 298 299 299 299 301 304 306 308 309 310 311 311 312 313 314 315 316 316 316
258 265 269 269 268 269 270 272 274 275 277 279 281 283 285 287 289 291 292 293 294 296 299 299 299 300 302 304 307 308 309 310 310 311 311 312 313 315 316 317 317 318
264 266 266 267 268 271 272 274 275 277 279 282 284 287 289 290 291 292 294 296 298 299 300 300 301 303 305 307 308 309 310 310 310 311 311 313 315 316 317 317 318 320
261 262 264 266 268 271 273 275 278 281 284 286 288 290 291 293 294 296 298 300 300 299 299 301 303 305 306 307 308 309 310 310 310 311 312 313 315 316 317 319 320 321
256 259 263 265 268 272 276 279 283 285 286 288 289 292 294 296 298 299 300 299 298 299 300 302 303 304 305 307 308 309 309 310 311 311 312 313 315 316 318 321 322 323
Height
5805 5805 5806 5807 5807 5808 5809 5810 5810 5810 5810 5810 5810 5811 5812 5812 5813 5814 5814 5815 5815 5814 5814 5813 5812 5810 5809 5808 5807 5805 5803 5801 5800 5798 5796 5795 5793 5792 5791 5790 5788 5787
5803 5803 5804 5805 5806 5806 5807 5808 5809 5809 5809 5809 5809 5810 5811 5811 5812 5812 5813 5813 5813 5812 5811 5810 5809 5808 5807 5805 5803 5802 5800 5799 5797 5795 5793 5792 5791 5790 5788 5787 5785 5784
5800 5801 5802 5802 5803 5804 5805 5806 5806 5807 5807 5807 5808 5808 5809 5809 5810 5810 5810 5811 5810 5809 5808 5807 5806 5805 5804 5802 5800 5799 5797 5796 5794 5792 5791 5790 5788 5787 5786 5784 5782 5780
5799 5799 5799 5800 5801 5801 5802 5803 5804 5805 5805 5805 5805 5805 5806 5806 5807 5808 5808 5807 5806 5805 5804 5804 5803 5802 5800 5799 5797 5796 5794 5793 5791 5790 5789 5787 5786 5784 5782 5781 5779 5776
5796 5797 5797 5797 5798 5799 5800 5800 5801 5802 5802 5802 5802 5802 5803 5804 5805 5805 5804 5804 5803 5802 5802 5801 5799 5798 5797 5796 5795 5793 5792 5790 5789 5787 5786 5784 5782 5781 5779 5777 5775 5772
5794 5794 5794 5795 5796 5796 5797 5798 5799 5799 5799 5799 5799 5800 5801 5802 5802 5802 5801 5800 5800 5799 5799 5797 5796 5795 5794 5793 5792 5790 5789 5788 5786 5784 5782 5781 5779 5778 5776 5773 5771 5768
5791 5792 5793 5793 5794 5794 5795 5795 5795 5796 5796 5796 5797 5798 5799 5800 5799 5798 5797 5797 5797 5796 5795 5794 5793 5792 5791 5790 5789 5787 5786 5784 5783 5781 5779 5778 5776 5775 5772 5769 5767 5765
5789 5790 5791 5791 5791 5792 5792 5792 5793 5793 5793 5793 5794 5796 5796 5796 5795 5794 5794 5794 5794 5793 5792 5791 5790 5789 5788 5787 5785 5784 5782 5781 5779 5777 5776 5775 5773 5771 5768 5765 5763 5760
5787 5788 5788 5789 5789 5790 5790 5790 5790 5790 5790 5791 5792 5793 5793 5792 5791 5791 5791 5791 5790 5789 5789 5788 5787 5786 5785 5783 5782 5780 5779 5777 5776 5774 5773 5771 5769 5766 5764 5761 5759 5756
5785 5785 5786 5786 5787 5787 5787 5787 5787 5787 5788 5789 5790 5789 5789 5788 5788 5788 5788 5787 5787 5786 5785 5784 5784 5783 5781 5780 5779 5777 5775 5774 5772 5771 5769 5767 5765 5762 5760 5757 5754 5752
5782 5783 5783 5783 5784 5784 5784 5784 5784 5785 5786 5787 5786 5786 5785 5784 5784 5785 5785 5784 5783 5783 5782 5781 5780 5779 5778 5776 5775 5773 5772 5770 5769 5767 5765 5763 5760 5758 5755 5753 5750 5747
5779 5780 5780 5780 5781 5781 5781 5781 5781 5782 5783 5783 5783 5782 5781 5781 5782 5782 5781 5781 5780 5779 5778 5777 5776 5775 5774 5772 5771 5770 5768 5767 5765 5763 5760 5758 5756 5753 5751 5748 5746 5743
5777 5777 5777 5777 5777 5777 5778 5778 5779 5779 5780 5780 5779 5778 5778 5778 5779 5778 5778 5777 5777 5776 5775 5774 5773 5772 5770 5769 5768 5766 5765 5763 5761 5758 5756 5754 5751 5749 5747 5744 5741 5739
5774 5774 5774 5774 5774 5774 5774 5775 5776 5776 5776 5776 5776 5776 5776 5776 5775 5775 5774 5774 5773 5773 5772 5771 5769 5768 5767 5765 5764 5763 5761 5759 5756 5754 5752 5749 5747 5744 5742 5739 5737 5734
5771 5771 5771 5771 5771 5771 5772 5772 5772 5773 5773 5773 5774 5773 5773 5772 5772 5772 5771 5771 5770 5769 5768 5767 5766 5765 5763 5762 5760 5759 5756 5754 5752 5750 5747 5745 5742 5740 5737 5735 5732 5729
5767 5767 5767 5768 5769 5769 5769 5769 5769 5770 5770 5770 5771 5771 5770 5769 5769 5769 5768 5768 5767 5766 5765 5764 5762 5761 5760 5758 5756 5754 5752 5750 5747 5745 5743 5740 5738 5735 5732 5730 5727 5724
5764 5765 5765 5766 5766 5766 5766 5766 5766 5767 5767 5767 5767 5767 5767 5766 5766 5765 5765 5764 5763 5762 5761 5760 5758 5757 5755 5753 5751 5749 5747 5745 5743 5740 5738 5736 5733 5731 5728 5725 5723 5720
5763 5764 5764 5764 5763 5763 5763 5763 5763 5764 5764 5764 5764 5764 5764 5763 5762 5762 5761 5760 5760 5758 5757 5755 5754 5752 5751 5749 5747 5745 5743 5740 5738 5736 5734 5731 5729 5727 5724 5721 5719 5715
5761 5761 5761 5761 5760 5760 5760 5760 5760 5761 5761 5761 5761 5761 5760 5760 5759 5758 5758 5757 5756 5754 5753 5751 5749 5748 5747 5745 5743 5741 5739 5736 5734 5732 5730 5728 5726 5723 5721 5718 5715 5712
5759 5759 5759 5758 5758 5758 5758 5758 5758 5758 5758 5758 5758 5757 5757 5756 5756 5755 5754 5753 5751 5750 5749 5747 5746 5744 5743 5741 5740 5737 5735 5733 5730 5729 5727 5724 5722 5720 5717 5715 5712 5709
5757 5757 5757 5756 5756 5756 5755 5755 5755 5755 5755 5755 5754 5754 5754 5753 5752 5751 5750 5749 5747 5746 5745 5744 5742 5741 5739 5738 5736 5734 5731 5729 5727 5726 5724 5721 5719 5717 5714 5712 5709 5706
5754 5755 5754 5754 5754 5753 5753 5753 5753 5752 5752 5752 5752 5751 5750 5749 5748 5747 5746 5745 5744 5743 5742 5740 5739 5737 5736 5734 5732 5730 5729 5727 5725 5723 5721 5718 5716 5714 5711 5709 5706 5703
5752 5752 5752 5752 5751 5751 5751 5750 5750 5750 5750 5749 5749 5748 5747 5746 5745 5744 5743 5742 5741 5740 5738 5737 5735 5734 5732 5731 5729 5728 5726 5724 5722 5720 5718 5716 5713 5711 5709 5706 5703 5700
5749 5749 5749 5749 5749 5748 5748 5748 5747 5747 5747 5746 5745 5744 5743 5742 5741 5740 5739 5738 5737 5736 5735 5733 5732 5730 5729 5728 5726 5725 5723 5721 5719 5717 5715 5713 5711 5709 5706 5703 5700 5697
5747 5747 5746 5746 5746 5746 5745 5745 5744 5744 5744 5743 5742 5741 5740 5739 5738 5737 5736 5735 5734 5733 5732 5730 5729 5728 5727 5725 5724 5722 5721 5719 5717 5715 5712 5710 5708 5706 5703 5700 5697 5693
5744 5744 5744 5744 5743 5743 5742 5741 5741 5741 5740 5739 5738 5737 5736 5735 5735 5734 5733 5732 5731 5730 5729 5728 5727 5725 5724 5723 5722 5720 5718 5716 5714 5712 5710 5708 5705 5703 5700 5697 5693 5690